This demonstration page uses our WeatherBlox Daily Observations layout. Learn more.

Hourly Observations for January 7, 2020

Temp ( °F °C ) Dew Point ( °F °C ) Humidity (%) Winds ( mph kmh ) Pressure ( in mb ) Visibility ( mi km ) Precip ( " mm )
12:15 am 00:15 Clear 28 -2 21 -6.2 73 73 WNW 6 9 30.3 1026 10 16.0934 0 0
12:35 am 00:35 Clear 28 -2 21 -6.2 73 73 WNW 5 7 30.29 1026 10 16.0934 0 0
12:55 am 00:55 Clear 28 -2.4 20 -6.4 74 74 WNW 6 9 30.3 1026 10 16.0934 0 0
1:15 am 01:15 Clear 28 -2.4 21 -6.2 75 75 WNW 5 7 30.29 1026 10 16.0934 0 0
1:35 am 01:35 Clear 27 -2.6 20 -6.6 74 74 W 5 7 30.29 1026 10 16.0934 0 0
1:55 am 01:55 Clear 28 -2.2 20 -6.5 73 73 W 8 13 30.29 1026 10 16.0934 0 0
2:15 am 02:15 Clear 28 -2.2 19 -7 70 70 W 7 11 30.29 1026 10 16.0934 0 0
2:35 am 02:35 Clear 29 -1.6 19 -7.1 66 66 W 6 9 30.28 1025 10 16.0934 0 0
2:55 am 02:55 Clear 27 -2.7 19 -7.3 71 71 WSW 5 7 30.28 1025 10 16.0934 0 0
3:15 am 03:15 Clear 25 -4 19 -7.1 79 79 WSW 3 6 30.29 1026 10 16.0934 0 0
3:35 am 03:35 Clear 26 -3.4 20 -6.7 78 78 WSW 6 9 30.3 1026 10 16.0934 0 0
3:55 am 03:55 Clear 27 -2.8 20 -6.5 76 76 W 6 9 30.29 1026 10 16.0934 0 0
4:15 am 04:15 Clear 28 -2 20 -6.5 72 72 WSW 3 6 30.27 1025 10 16.0934 0 0
4:35 am 04:35 Clear 28 -2.4 21 -6 77 77 SW 3 6 30.27 1025 10 16.0934 0 0
4:55 am 04:55 Clear 27 -2.7 21 -6 78 78 SW 3 6 30.27 1025 10 16.0934 0 0
5:15 am 05:15 Clear 27 -3 21 -6 80 80 SW 6 9 30.27 1025 10 16.0934 0 0
5:35 am 05:35 Partly Cloudy 27 -2.7 21 -6 78 78 SW 8 13 30.27 1025 10 16.0934 0 0
5:55 am 05:55 Clear 27 -3 21 -6.2 79 79 WSW 7 11 30.28 1026 10 16.0934 0 0
6:15 am 06:15 Clear 26 -3.3 20 -6.5 79 79 WSW 7 11 30.29 1026 10 16.0934 0 0
6:35 am 06:35 Clear 27 -2.8 20 -6.5 76 76 WSW 5 7 30.26 1025 10 16.0934 0 0
6:55 am 06:55 Clear 25 -4 20 -6.6 82 82 SW 3 6 30.26 1025 10 16.0934 0 0
7:15 am 07:15 Clear 26 -3.1 20 -6.5 78 78 WSW 9 15 30.26 1025 10 16.0934 0 0
7:35 am 07:35 Clear 27 -3 20 -6.7 76 76 W 13 20 30.25 1025 10 16.0934 0 0
7:55 am 07:55 Clear 27 -3 20 -6.7 76 76 WSW 14 22 30.25 1025 10 16.0934 0 0
8:15 am 08:15 Sunny 28 -2.4 20 -6.7 73 73 WSW 12 19 30.25 1024 10 16.0934 0 0
8:35 am 08:35 Sunny 29 -1.8 20 -6.5 71 71 WSW 15 24 30.25 1024 10 16.0934 0 0
8:55 am 08:55 Sunny 30 -0.9 20 -6.5 66 66 WSW 14 22 30.23 1024 10 16.0934 0 0
9:15 am 09:15 Sunny 30 -1 20 -6.5 67 67 W 17 28 30.25 1025 10 16.0934 0 0
9:35 am 09:35 Sunny 31 -0.3 21 -5.9 66 66 W 15 24 30.26 1025 10 16.0934 0 0
9:55 am 09:55 Sunny 32 0 22 -5.4 67 67 W 13 20 30.26 1025 10 16.0934 0 0
10:15 am 10:15 Sunny 34 0.9 24 -4.6 67 67 W 14 22 30.27 1025 10 16.0934 0 0
10:35 am 10:35 Sunny 36 2.1 25 -3.9 65 65 W 12 19 30.26 1025 10 16.0934 0 0
10:55 am 10:55 Sunny 39 3.9 25 -3.9 57 57 W 12 19 30.24 1024 10 16.0934 0 0
11:15 am 11:15 Sunny 41 4.9 26 -3.5 55 55 W 13 20 30.23 1024 10 16.0934 0 0
11:35 am 11:35 Sunny 42 5.5 26 -3.3 53 53 W 12 19 30.2 1023 10 16.0934 0 0
11:55 am 11:55 Sunny 43 6 27 -3 53 53 W 13 20 30.2 1023 10 16.0934 0 0
12:15 pm 12:15 Sunny 44 6.5 28 -2.4 53 53 WNW 10 17 30.18 1022 10 16.0934 0 0
12:35 pm 12:35 Sunny 46 7.5 28 -2.2 51 51 NW 13 20 30.18 1022 10 16.0934 0 0
12:55 pm 12:55 Sunny 47 8.1 29 -1.9 50 50 WNW 10 17 30.16 1021 10 16.0934 0 0
1:15 pm 13:15 Sunny 47 8.4 29 -1.5 50 50 NW 9 15 30.15 1021 10 16.0934 0 0
1:35 pm 13:35 Sunny 49 9.2 29 -1.6 47 47 NW 10 17 30.14 1021 10 16.0934 0 0
1:55 pm 13:55 Sunny 48 9.1 29 -1.6 47 47 NW 8 13 30.14 1021 10 16.0934 0 0
2:15 pm 14:15 Sunny 49 9.5 29 -1.7 46 46 WNW 8 13 30.13 1020 10 16.0934 0 0
2:35 pm 14:35 Sunny 49 9.6 29 -1.6 46 46 WNW 7 11 30.13 1020 10 16.0934 0 0
2:55 pm 14:55 Sunny 50 9.8 29 -1.8 45 45 W 8 13 30.13 1020 10 16.0934 0 0
3:15 pm 15:15 Sunny 50 10 28 -2.1 43 43 WNW 5 7 30.13 1020 10 16.0934 0 0
3:35 pm 15:35 Sunny 50 9.8 27 -2.6 42 42 Calm 30.13 1020 10 16.0934 0 0
3:55 pm 15:55 Sunny 49 9.6 27 -2.8 42 42 Calm 30.14 1021 10 16.0934 0 0
4:15 pm 16:15 Sunny 49 9.5 28 -2 45 45 Calm 30.15 1021 10 16.0934 0 0
4:35 pm 16:35 Sunny 48 9.1 28 -2 46 46 Calm 30.15 1021 10 16.0934 0 0
4:55 pm 16:55 Sunny 47 8.5 29 -1.9 48 48 Calm 30.17 1022 10 16.0934 0 0
5:15 pm 17:15 Sunny 46 7.6 29 -1.5 53 53 Calm 30.17 1022 10 16.0934 0 0
5:35 pm 17:35 Clear 44 6.5 29 -1.5 57 57 Calm 30.17 1022 10 16.0934 0 0
5:55 pm 17:55 Clear 41 4.9 29 -1.9 62 62 S 5 7 30.19 1022 10 16.0934 0 0
6:15 pm 18:15 Clear 37 2.8 28 -2.2 70 70 SE 3 6 30.21 1023 10 16.0934 0 0
6:35 pm 18:35 Clear 35 1.7 29 -1.7 78 78 SSE 8 13 30.21 1023 10 16.0934 0 0
6:55 pm 18:55 Clear 36 2.2 28 -2.1 74 74 SSE 6 9 30.2 1023 10 16.0934 0 0
7:15 pm 19:15 Clear 36 2 28 -2.5 72 72 S 5 7 30.21 1023 10 16.0934 0 0
7:35 pm 19:35 Clear 35 1.8 27 -2.8 72 72 S 6 9 30.21 1023 10 16.0934 0 0
7:55 pm 19:55 Clear 31 -0.6 27 -2.8 85 85 SE 3 6 30.24 1024 10 16.0934 0 0
8:15 pm 20:15 Clear 31 -0.6 27 -2.7 86 86 ESE 6 9 30.24 1024 10 16.0934 0 0
8:35 pm 20:35 Clear 32 -0.2 27 -2.6 84 84 E 9 15 30.23 1024 10 16.0934 0 0
8:55 pm 20:55 Clear 32 0 28 -2.2 85 85 E 10 17 30.23 1024 10 16.0934 0 0
9:15 pm 21:15 Clear 34 1 29 -1.7 82 82 E 10 17 30.22 1023 10 16.0934 0 0
9:35 pm 21:35 Clear 32 -0.1 28 -2.2 86 86 ESE 7 11 30.25 1024 10 16.0934 0 0
9:55 pm 21:55 Clear 31 -0.7 28 -2.2 90 90 ESE 6 9 30.25 1024 10 16.0934 0 0
10:15 pm 22:15 Clear 29 -1.6 26 -3.1 90 90 E 3 6 30.27 1025 10 16.0934 0 0
10:35 pm 22:35 Clear 30 -1 28 -2.2 92 92 ESE 6 9 30.27 1025 10 16.0934 0 0
10:55 pm 22:55 Clear 29 -1.5 28 -2.5 93 93 E 8 13 30.27 1025 10 16.0934 0 0
11:15 pm 23:15 Clear 31 -0.4 28 -2.1 88 88 E 10 17 30.26 1025 10 16.0934 0 0
11:35 pm 23:35 Clear 31 -0.7 28 -2.5 88 88 E 9 15 30.26 1025 10 16.0934 0 0
11:55 pm 23:55 Clear 31 -0.7 28 -2.5 88 88 E 7 11 30.27 1025 10 16.0934 0 0

Powered by AerisWeather